Norman, OK

3:42 PM CDT on April 24, 2018 (GMT -0500)
Univ. Of Oklahoma Westheimer

Weather History for KOUN - February, 2014

Change the Weather History Date:

Wednesday, February 5, 2014

  Actual Average Record
Temperature  
Mean Temperature 17 °F -  
Max Temperature 24 °F 57 °F 76 °F (1963)
Min Temperature 10 °F 30 °F 10 °F (2014)
Degree Days  
Heating Degree Days 48    
Moisture  
Dew Point 10 °F    
Average Humidity 82    
Maximum Humidity 93    
Minimum Humidity 73    
Precipitation  
Precipitation 0.00 in - - ()
Sea Level Pressure  
Sea Level Pressure 30.50 in    
Wind  
Wind Speed 21 mph (NNW)    
Max Wind Speed 29 mph    
Max Gust Speed 36 mph    
Visibility 10 miles    
Events Snow    
Averages and records for this station are not official NWS values.
T = Trace of Precipitation, MM = Missing Value Source: NWS Daily Summary

Daily Weather History Graph

Daily Weather History Graph

Search for Another Location

Airport or City:

Astronomy

Feb. 05, 2014 Rise Set
Actual Time 7:25 AM CST 6:02 PM CST
Civil Twilight 6:59 AM CST 6:28 PM CST
Nautical Twilight 6:29 AM CST 6:59 PM CST
Astronomical Twilight 5:59 AM CST 7:28 PM CST
Moon 10:57 AM CST (2/5) No Moon Set
Length of Visible Light 11h 29m
Length of Day
10h 36m
Waxing Crescent, 39% of the Moon is Illuminated
Feb 5
Waxing Crescent
Feb 6
First Quarter
Feb 14
Full
Feb 22
Last Quarter
Mar 1
New

Hourly Weather History & Observations

Time (CST) Temp. Windchill Dew Point Humidity Pressure Visibility Wind Dir Wind Speed Gust Speed Precip Events Conditions
12:15 AM 24.8 °F 9.6 °F 23.0 °F 93% 30.19 in 10.0 mi NW 23.0 mph 28.8 mph N/A   Overcast
12:35 AM 23.0 °F 6.6 °F 21.2 °F 93% 30.21 in 10.0 mi NNW 25.3 mph 32.2 mph N/A   Overcast
12:55 AM 23.0 °F 6.6 °F 21.2 °F 93% 30.22 in 10.0 mi NNW 25.3 mph 33.4 mph N/A   Overcast
1:15 AM 23.0 °F 6.9 °F 21.2 °F 93% 30.23 in 10.0 mi NNW 24.2 mph 33.4 mph N/A   Overcast
1:35 AM 21.2 °F 3.3 °F 19.4 °F 93% 30.23 in 10.0 mi North 28.8 mph 35.7 mph N/A   Overcast
1:55 AM 21.2 °F 3.5 °F 19.4 °F 93% 30.24 in 10.0 mi NNW 27.6 mph 34.5 mph N/A   Overcast
2:15 AM 21.2 °F 5.2 °F 19.4 °F 93% 30.26 in 10.0 mi North 21.9 mph 27.6 mph N/A Snow Light Snow
2:35 AM 21.2 °F 3.9 °F 19.4 °F 93% 30.28 in 10.0 mi North 26.5 mph 34.5 mph N/A   Overcast
2:55 AM 21.2 °F 6.0 °F 17.6 °F 86% 30.30 in 10.0 mi NNW 19.6 mph 26.5 mph N/A   Overcast
3:15 AM 19.4 °F 4.1 °F 17.6 °F 93% 30.32 in 7.0 mi NNW 18.4 mph 29.9 mph N/A Snow Light Snow
3:35 AM 17.6 °F 0.1 °F 14.0 °F 86% 30.33 in 10.0 mi North 23.0 mph 33.4 mph N/A Snow Light Snow
3:55 AM 17.6 °F 0.5 °F 14.0 °F 86% 30.35 in 10.0 mi North 21.9 mph 29.9 mph N/A Snow Light Snow
4:15 AM 14.0 °F -4.7 °F 12.2 °F 93% 30.36 in 10.0 mi NNW 23.0 mph - N/A Snow Light Snow
4:35 AM 14.0 °F -3.4 °F 10.4 °F 86% 30.38 in 10.0 mi North 19.6 mph 26.5 mph N/A   Overcast
4:55 AM 14.0 °F -5.1 °F 10.4 °F 86% 30.38 in 10.0 mi North 24.2 mph 32.2 mph N/A Snow Light Snow
5:15 AM 12.2 °F -6.7 °F 10.4 °F 92% 30.40 in 10.0 mi NNW 21.9 mph - N/A   Mostly Cloudy
5:35 AM 12.2 °F -7.1 °F 10.4 °F 92% 30.41 in 10.0 mi North 23.0 mph - N/A Snow Light Snow
5:55 AM 12.2 °F -6.3 °F 8.6 °F 85% 30.43 in 10.0 mi North 20.7 mph 27.6 mph N/A   Overcast
6:15 AM 12.2 °F -4.8 °F 8.6 °F 85% 30.46 in 10.0 mi NNW 17.3 mph - N/A   Overcast
6:35 AM 12.2 °F -5.3 °F 8.6 °F 85% 30.48 in 10.0 mi North 18.4 mph 24.2 mph N/A   Overcast
6:55 AM 12.2 °F -6.3 °F 8.6 °F 85% 30.49 in 10.0 mi NNW 20.7 mph 26.5 mph N/A   Overcast
7:15 AM 10.4 °F -7.7 °F 8.6 °F 92% 30.50 in 10.0 mi NNW 18.4 mph 25.3 mph N/A   Overcast
7:35 AM 10.4 °F -8.2 °F 8.6 °F 92% 30.51 in 10.0 mi NNW 19.6 mph - N/A   Overcast
7:55 AM 10.4 °F -9.9 °F 6.8 °F 85% 30.52 in 10.0 mi NNW 24.2 mph - N/A   Overcast
8:15 AM 10.4 °F -8.6 °F 6.8 °F 85% 30.53 in 10.0 mi North 20.7 mph 26.5 mph N/A   Mostly Cloudy
8:35 AM 10.4 °F -9.1 °F 8.6 °F 92% 30.53 in 10.0 mi NNW 21.9 mph 26.5 mph N/A   Mostly Cloudy
8:55 AM 10.4 °F -9.5 °F 6.8 °F 85% 30.54 in 10.0 mi North 23.0 mph 26.5 mph N/A   Scattered Clouds
9:15 AM 10.4 °F -8.2 °F 5.0 °F 79% 30.55 in 10.0 mi North 19.6 mph 28.8 mph N/A   Scattered Clouds
9:35 AM 12.2 °F -5.8 °F 6.8 °F 79% 30.56 in 10.0 mi NNW 19.6 mph 26.5 mph N/A   Scattered Clouds
9:55 AM 12.2 °F -4.8 °F 8.6 °F 85% 30.56 in 10.0 mi NNW 17.3 mph 25.3 mph N/A   Scattered Clouds
10:15 AM 14.0 °F -3.0 °F 8.6 °F 79% 30.57 in 10.0 mi North 18.4 mph 25.3 mph N/A   Scattered Clouds
10:35 AM 12.2 °F -7.1 °F 8.6 °F 85% 30.56 in 10.0 mi NNW 23.0 mph - N/A   Scattered Clouds
10:55 AM 14.0 °F -3.4 °F 8.6 °F 79% 30.57 in 10.0 mi NNW 19.6 mph - N/A   Clear
11:15 AM 14.0 °F -3.9 °F 10.4 °F 86% 30.58 in 10.0 mi North 20.7 mph - N/A   Clear
11:35 AM 15.8 °F 0.9 °F 10.4 °F 79% 30.58 in 10.0 mi North 15.0 mph - N/A   Clear
11:55 AM 17.6 °F 3.7 °F 10.4 °F 73% 30.57 in 10.0 mi North 13.8 mph 23.0 mph N/A   Scattered Clouds
12:15 PM 17.6 °F 3.7 °F 10.4 °F 73% 30.57 in 10.0 mi NNW 13.8 mph - N/A   Scattered Clouds
12:35 PM 15.8 °F 3.4 °F 10.4 °F 79% 30.59 in 10.0 mi NNW 10.4 mph 19.6 mph N/A   Mostly Cloudy
12:55 PM 15.8 °F 2.1 °F 10.4 °F 79% 30.58 in 10.0 mi NW 12.7 mph - N/A   Overcast
1:15 PM 15.8 °F 1.4 °F 10.4 °F 79% 30.56 in 10.0 mi NNW 13.8 mph - N/A   Scattered Clouds
1:35 PM 17.6 °F 1.3 °F 10.4 °F 73% 30.54 in 10.0 mi NNW 19.6 mph - N/A   Scattered Clouds
1:55 PM 15.8 °F -0.6 °F 10.4 °F 79% 30.54 in 10.0 mi North 18.4 mph 23.0 mph N/A   Clear
2:15 PM 17.6 °F 1.7 °F 10.4 °F 73% 30.53 in 10.0 mi NNW 18.4 mph - N/A   Scattered Clouds
2:35 PM 17.6 °F 1.3 °F 10.4 °F 73% 30.54 in 10.0 mi North 19.6 mph 23.0 mph N/A   Mostly Cloudy
2:55 PM 17.6 °F 3.7 °F 10.4 °F 73% 30.57 in 10.0 mi NNW 13.8 mph 19.6 mph N/A   Scattered Clouds
3:15 PM 15.8 °F 2.1 °F 8.6 °F 73% 30.58 in 10.0 mi NW 12.7 mph 31.1 mph N/A   Scattered Clouds
3:35 PM 15.8 °F -1.1 °F 8.6 °F 73% 30.57 in 10.0 mi NNW 19.6 mph 29.9 mph N/A   Mostly Cloudy
3:55 PM 15.8 °F -0.2 °F 10.4 °F 79% 30.57 in 10.0 mi NNW 17.3 mph 20.7 mph N/A   Scattered Clouds
4:15 PM 14.0 °F -3.0 °F 8.6 °F 79% 30.57 in 10.0 mi NNW 18.4 mph - N/A   Clear
4:35 PM 14.0 °F -3.4 °F 8.6 °F 79% 30.56 in 10.0 mi North 19.6 mph 23.0 mph N/A   Clear
4:55 PM 14.0 °F -3.9 °F 8.6 °F 79% 30.56 in 10.0 mi North 20.7 mph 26.5 mph N/A   Clear
5:15 PM 12.2 °F -4.8 °F 8.6 °F 85% 30.57 in 10.0 mi North 17.3 mph - N/A   Clear
5:35 PM 12.2 °F -5.3 °F 6.8 °F 79% 30.58 in 10.0 mi North 18.4 mph - N/A   Clear
5:55 PM 12.2 °F -4.8 °F 6.8 °F 79% 30.57 in 10.0 mi North 17.3 mph 21.9 mph N/A   Clear
6:15 PM 12.2 °F -4.8 °F 6.8 °F 79% 30.58 in 10.0 mi North 17.3 mph - N/A   Clear
6:35 PM 12.2 °F -5.3 °F 6.8 °F 79% 30.58 in 10.0 mi North 18.4 mph - N/A   Clear
6:55 PM 12.2 °F -4.8 °F 6.8 °F 79% 30.58 in 10.0 mi North 17.3 mph 21.9 mph N/A   Clear
7:15 PM 12.2 °F -5.3 °F 6.8 °F 79% 30.58 in 10.0 mi North 18.4 mph 24.2 mph N/A   Mostly Cloudy
7:35 PM 12.2 °F -4.3 °F 5.0 °F 73% 30.58 in 10.0 mi North 16.1 mph 24.2 mph N/A   Overcast
7:55 PM 12.2 °F -5.8 °F 5.0 °F 73% 30.58 in 10.0 mi North 19.6 mph - N/A   Overcast
8:15 PM 10.4 °F -7.2 °F 5.0 °F 79% 30.58 in 10.0 mi North 17.3 mph 23.0 mph N/A   Overcast
8:35 PM 10.4 °F -7.2 °F 5.0 °F 79% 30.58 in 10.0 mi North 17.3 mph 24.2 mph N/A   Mostly Cloudy
8:55 PM 10.4 °F -6.0 °F 5.0 °F 79% 30.58 in 10.0 mi North 15.0 mph - N/A   Scattered Clouds
9:15 PM 10.4 °F -7.2 °F 5.0 °F 79% 30.59 in 10.0 mi North 17.3 mph 24.2 mph N/A   Mostly Cloudy
9:35 PM 10.4 °F -6.0 °F 5.0 °F 79% 30.61 in 10.0 mi North 15.0 mph 20.7 mph N/A   Overcast
9:55 PM 10.4 °F -6.6 °F 5.0 °F 79% 30.60 in 10.0 mi North 16.1 mph - N/A   Mostly Cloudy
10:15 PM 10.4 °F -6.6 °F 5.0 °F 79% 30.60 in 10.0 mi North 16.1 mph 19.6 mph N/A   Overcast
10:35 PM 10.4 °F -6.0 °F 5.0 °F 79% 30.59 in 10.0 mi North 15.0 mph 19.6 mph N/A   Overcast
10:55 PM 10.4 °F -6.0 °F 5.0 °F 79% 30.59 in 10.0 mi North 15.0 mph 19.6 mph N/A   Overcast
11:15 PM 10.4 °F -7.2 °F 5.0 °F 79% 30.59 in 10.0 mi North 17.3 mph - N/A   Mostly Cloudy
11:35 PM 10.4 °F -4.8 °F 5.0 °F 79% 30.58 in 10.0 mi North 12.7 mph 20.7 mph N/A   Overcast
11:55 PM 10.4 °F -5.4 °F 5.0 °F 79% 30.58 in 10.0 mi NNE 13.8 mph 21.9 mph N/A   Overcast